COSMOS 252 DEB *, 5871

Orbit data source: Space-Track

COSMOS 252 DEB *, 5871 is space debris in LEO originally from a launch on Fri, 01 Nov 1968 UTC launched from the Tyuratam Missile And Space Complex (TTMTR). Debris objects in space refer to the collection of defunct objects orbiting the Earth. Examples of debris include non-operational satellites, rocket bodies, and fragments generated from explosions, collisions, or faulty payload assembly.

Loading next visibility...
Identifier
5871, 1968-097DK
Orbit
LEO
Country
Flag of CISCIS
Related business
Manufacturer
Unknown
Mission
Spacecraft
Bus & Motor
Unknown
Mass
Unknown
Launch date (UTC)
1968-11-01 (57 years ago)
Launch vehicle
Unknown
Launch site
Tyuratam Missile And Space Complex (TTMTR)
Object type
Payload
Rocket body
Debris
Shape & HBR
Unknown shape, 0.2 m
Radar Cross Section
Small (<0.1 m²)

Expand to show TLE details & history
Last TLE update: 1 day ago

TLE from 1 day ago
0 COSMOS 252 DEB *
1 05871U 68097DK  25346.69719353  .00001297  00000-0  54963-3 0  9993
2 05871  62.8186  95.4861 0896630 199.4925 156.9645 13.06324663689214
Epoch: 2025-12-12T16:43Z
TLE epoch observation values (Epoch: 2025-12-12T16:43:57.520Z)
Latitude
0.00001°
Longitude
122.86134°
Altitude
1,875.841 km
Speed
6.654 km/s
True Right ascension
06h 21m 56s
True Declination
0° 00' 00"
Sunlit
Object was in full shadow at epoch
Visualization orbit readout
Latitude
Unknown
Longitude
Unknown
Altitude
Unknown
Speed
Unknown
Apparent Right ascension
Unknown
Apparent Declination
Unknown
Sunlit
N/A
Visualization observer readout
Local Sidereal Time
22:08:32
Azimuth
Unknown
Elevation
Unknown
Doppler factor
Unknown
Orbital elements
Apogee altitude
1,919.055 km
Perigee altitude
553.585 km
Semi-major axis
7,614.457 km
Eccentricity
0.08966
Inclination
62.8186°
RAAN
95.4861°
Arg. of periapsis
199.4925°
True anomaly
160.60545°
Mean anomaly
156.9645°
Eccentric anomaly
158.82056°
Mean motion
3.26652 °/min
Orbital period
110.21 mins
BSTAR
0.00054963
Loading maneuver chart data...
Computing Atmospheric mass density...

Documentation

Showing up to 5 results
|